Probability
0 0 0 0 0 0 0 0 0 1 3 9 14 16 16 15 14 18 22 22 22 22 21 19 15 9 6 3 3 3 4 5 7 9 9 9 9 8 8 10 11 10 8 6
0 0 0 0 0 0 0 0 0 1 5 12 18 21 21 19 18 20 23 23 22 21 19 16 12 10 7 5 4 4 4 4 6 8 10 11 12 10 10 12 13 11 8 7
0 0 0 0 0 0 0 1 2 5 9 16 22 25 26 24 22 23 24 25 23 19 15 11 9 10 9 8 7 7 7 6 6 8 10 12 14 14 14 15 16 15 11 10
0 0 0 1 1 0 1 2 5 10 15 19 24 26 26 25 24 23 24 25 23 20 16 12 9 9 10 11 11 11 11 10 10 11 11 12 16 18 18 19 20 19 15 13
0 0 1 2 2 1 2 3 8 15 20 22 22 22 21 23 24 23 22 22 22 22 21 17 11 8 10 11 12 13 14 15 16 17 17 17 19 21 20 21 21 20 16 13
0 0 1 2 2 2 3 5 11 18 23 24 21 21 22 22 22 22 22 21 21 22 24 21 15 11 11 12 13 14 15 16 19 22 22 23 23 22 20 20 21 19 15 12
0 0 0 1 3 5 9 13 18 23 27 28 27 26 25 22 21 22 21 21 20 21 23 22 19 17 16 16 16 15 16 18 20 21 23 24 24 23 21 20 20 17 13 11
1 0 1 3 8 14 20 25 27 30 32 32 29 25 22 20 19 19 18 17 17 18 20 20 19 18 18 18 18 16 17 19 22 22 23 24 24 24 22 20 17 13 10 8
2 2 3 7 15 22 27 29 29 30 32 29 23 20 18 16 15 15 14 13 12 13 14 15 14 14 14 15 16 17 17 19 22 23 21 20 20 20 19 17 12 9 7 6
4 5 5 9 16 23 25 25 25 26 26 23 19 17 15 13 11 10 10 9 8 8 7 8 8 10 11 12 14 16 16 17 18 18 15 12 11 12 12 10 8 6 6 6
6 6 6 9 16 21 22 21 22 24 22 19 17 14 10 8 7 6 5 6 6 5 4 4 5 7 9 10 11 13 13 12 12 10 7 6 5 5 5 6 5 5 5 6
7 7 8 10 14 19 19 18 19 20 18 15 13 9 6 5 4 4 3 4 4 4 4 3 3 4 6 7 8 8 8 8 6 3 2 2 2 2 2 3 3 3 3 3
8 8 8 8 11 14 17 16 16 15 13 10 8 6 3 3 3 3 3 3 4 4 4 3 3 3 3 5 5 5 4 3 2 0 0 1 1 1 1 1 1 1 1 1
6 7 7 6 7 10 12 13 12 11 8 7 5 3 1 1 2 2 2 2 3 3 3 2 2 1 1 2 3 3 1 1 0 0 0 0 0 0 0 0 0 0 0 0
5 6 6 5 5 5 7 9 8 7 6 4 3 1 0 0 1 1 0 1 1 2 1 1 1 0 0 0 1 1 0 0 0 0 0 0 0 0 0 0 0 0 0 0
4 4 4 3 3 3 4 5 5 5 4 3 1 0 0 0 0 0 0 0 0 0 0 0 0 0 0 0 0 0 0 0 0 0 0 0 0 0 0 0 0 0 0 0
2 2 3 3 3 2 2 4 4 3 3 1 0 0 0 0 0 0 0 0 0 0 0 0 0 0 0 0 0 0 0 0 0 0 0 0 0 0 0 0 0 0 0 0
2 2 2 2 1 1 2 3 3 2 1 0 0 0 0 0 0 0 0 0 0 0 0 0 0 0 0 0 0 0 0 0 0 0 0 0 0 0 0 0 0 0 0 0
2 2 2 1 0 1 2 2 2 1 0 0 0 0 0 0 0 0 0 0 0 0 0 0 0 0 0 0 0 0 0 0 0 0 0 0 0 0 0 0 0 0 0 0
2 2 1 0 1 2 2 1 1 0 0 0 0 0 0 0 0 0 0 0 0 0 0 0 0 0 0 0 0 0 0 0 0 0 0 0 0 0 0 0 0 0 0 0
1 1 0 0 1 1 1 0 0 0 0 0 0 0 0 0 0 0 0 0 0 0 0 0 0 0 0 0 0 0 0 0 0 0 0 0 0 0 0 0 0 0 0 0
0 1 1 1 1 0 0 0 0 0 0 0 0 0 0 0 0 0 0 0 0 0 0 0 0 0 0 0 0 0 0 0 0 0 0 0 0 0 0 0 0 0 0 0
1 1 1 1 0 0 0 0 0 0 0 0 0 0 0 0 0 0 0 0 0 0 0 0 0 0 0 0 0 0 0 0 0 0 0 0 0 0 0 0 0 0 0 0
0 1 1 0 0 0 0 0 0 0 0 0 0 0 0 0 0 0 0 0 0 0 0 0 0 0 0 0 0 0 0 0 0 0 0 0 0 0 0 0 0 0 0 0
0 0 0 0 0 0 0 0 0 0 0 0 0 0 0 0 0 0 0 0 0 0 0 0 0 0 0 0 0 0 0 0 0 0 0 0 0 0 0 0 0 0 0 0
0 0 0 0 0 0 0 0 0 0 0 0 0 0 0 0 0 0 0 0 0 0 0 0 0 0 0 0 0 0 0 0 0 0 0 0 0 0 0 0 0 0 0 0
0 0 0 0 0 0 0 0 0 0 0 0 0 0 0 0 0 0 0 0 0 0 0 0 0 0 0 0 0 0 0 0 0 0 0 0 0 0 0 0 0 0 0 0
Wind_Speed
9 5 9 13 14 15 15 13 11 8 7 4 4 4 5 6 8 9 9 8 7 6 6 6 5 5 5 5 6 6 7 7 7 7 7 6 6 6 6 6 6 6 6 6
10 9 10 10 11 13 13 12 10 7 4 5 5 5 5 6 7 8 8 7 7 6 6 6 6 5 5 5 6 6 6 7 6 6 7 6 6 6 5 6 6 6 6 6
11 11 11 13 11 12 11 9 10 9 5 8 7 6 5 5 6 7 7 6 6 5 5 4 4 5 5 5 6 6 6 6 6 6 6 6 6 6 5 5 5 6 5 5
8 10 15 5 3 7 8 6 5 3 6 7 7 7 6 5 5 6 6 6 5 4 4 4 4 4 4 5 5 6 5 5 5 6 6 6 6 5 5 4 4 4 5 5
9 13 11 6 6 7 8 7 5 6 8 8 9 9 7 5 5 5 5 5 4 3 4 4 3 4 4 5 5 5 5 5 6 6 6 6 6 5 5 5 4 4 3 4
9 12 12 7 8 4 6 8 7 7 9 9 8 6 6 6 6 6 5 5 4 4 5 4 3 3 4 5 5 5 5 4 4 5 5 6 6 5 5 5 5 5 5 5
11 10 5 6 6 7 10 4 8 7 7 7 2 5 8 7 6 6 6 6 5 5 5 4 3 3 4 4 3 3 4 4 4 5 5 6 6 5 5 6 7 7 8 7
10 11 6 6 7 5 3 5 6 7 6 6 8 9 8 7 6 6 6 6 5 5 5 4 4 4 4 4 3 3 4 5 5 5 5 6 7 6 6 6 8 8 8 7
2 0 6 3 3 4 2 4 5 6 7 8 8 8 8 7 6 6 6 5 5 6 6 5 5 4 5 4 4 5 6 6 6 7 7 7 7 7 6 5 6 6 6 6
2 3 4 3 4 3 3 4 4 5 7 8 8 8 8 7 6 6 6 6 5 6 6 6 6 6 6 5 6 7 8 8 8 9 9 8 6 5 5 5 6 6 7 7
4 4 4 3 3 4 4 5 6 7 7 8 9 8 8 7 6 6 6 6 6 6 6 6 6 6 6 6 8 9 9 9 9 9 10 10 11 10 9 9 7 7 7 7
2 4 3 5 4 4 5 7 8 8 9 8 9 9 9 7 7 6 6 6 6 7 7 7 8 7 7 6 8 10 10 9 8 9 9 10 11 13 20 17 20 19 15 11
2 3 4 6 6 6 6 8 8 9 9 9 9 10 9 8 7 7 7 7 8 8 8 8 8 8 7 7 9 10 11 10 9 9 9 9 10 11 12 14 20 20 17 16
4 5 6 7 7 7 8 9 10 10 10 10 10 10 9 9 9 8 8 8 9 9 9 9 10 10 8 9 11 12 12 12 10 9 9 9 9 9 9 10 11 10 12 13
4 4 6 8 9 9 9 10 11 10 10 10 10 10 10 10 10 9 9 9 10 11 10 10 11 10 8 10 11 12 10 9 9 9 9 9 9 9 9 10 10 9 9 9
6 7 9 10 10 9 10 10 11 10 10 11 10 10 11 11 11 10 10 10 11 11 10 10 10 9 9 10 11 10 10 12 10 9 9 9 8 8 8 8 8 8 7 7
8 9 10 10 10 10 9 9 10 11 11 11 11 11 12 12 12 11 11 11 11 11 10 10 10 9 9 9 10 10 10 11 10 9 8 8 8 8 8 8 8 8 8 8
5 7 8 10 11 11 11 11 11 11 11 12 12 12 12 12 13 12 11 11 12 12 10 9 9 9 9 9 8 8 8 8 8 8 8 8 8 7 8 8 9 9 8 8
8 9 10 11 11 11 11 12 12 12 12 12 12 12 12 12 12 11 11 11 11 11 9 8 8 10 10 9 7 7 8 9 9 9 9 8 7 7 7 7 7 7 6 6
10 11 12 12 13 13 13 13 13 12 12 12 13 13 13 12 11 11 11 10 8 7 7 7 8 9 9 7 4 7 8 9 9 8 7 7 7 7 7 7 7 6 6 5
12 13 14 14 14 13 13 13 13 13 12 12 12 13 13 11 10 10 9 9 8 7 8 6 6 6 7 6 4 7 7 7 7 7 7 7 7 6 6 6 6 5 5 5
13 14 15 15 14 13 12 11 12 13 12 12 13 13 13 12 11 9 9 7 7 4 4 6 6 8 6 3 6 7 7 7 6 6 6 6 6 6 6 5 5 5 4 4
12 13 14 15 15 14 13 11 12 12 12 12 12 11 11 9 8 8 8 6 7 5 5 7 9 7 3 3 6 7 7 7 6 6 6 6 5 5 5 5 5 4 4 3
13 14 14 14 14 14 13 12 11 10 11 11 10 11 10 9 7 7 9 9 7 7 8 8 7 4 1 4 6 6 6 5 5 5 6 5 5 5 4 4 4 4 3 3
13 14 15 15 13 11 12 13 13 12 11 10 11 10 8 7 8 8 8 10 8 7 9 8 5 2 2 5 5 5 5 5 4 4 5 4 4 4 4 3 3 3 2 2
11 10 10 10 9 9 9 9 9 9 9 9 8 8 8 8 9 8 7 9 10 7 7 7 6 4 4 5 5 5 5 5 4 3 4 3 3 3 3 2 2 2 1 1
12 10 9 9 9 8 9 9 9 9 9 9 9 8 8 7 8 8 8 7 7 6 6 5 5 4 5 5 5 4 4 4 3 3 3 3 3 2 3 2 1 1 1 1
Wind_Direction
241 225 201 203 202 205 220 234 241 228 227 186 151 154 147 147 150 151 150 153 154 153 149 155 155 160 171 169 170 175 178 181 183 184 185 186 186 188 186 189 192 193 196 201
214 210 212 211 209 207 216 229 236 234 201 108 119 133 139 147 151 151 149 150 148 150 153 160 165 170 172 174 172 174 182 186 183 183 183 184 184 181 180 184 187 185 190 191
209 197 205 211 207 206 208 220 230 224 163 138 141 132 127 135 142 141 137 137 141 143 151 158 168 173 177 175 170 174 184 188 183 182 179 179 178 175 180 183 183 180 182 183
208 193 218 187 173 211 205 202 212 152 129 135 119 109 97 103 123 127 127 124 119 123 136 147 157 168 174 172 173 172 178 180 176 179 177 174 174 173 171 168 164 163 167 169
213 213 208 154 172 192 198 192 185 159 137 129 127 127 107 90 99 107 111 108 104 108 118 128 140 155 162 163 163 165 172 176 176 175 172 168 166 161 155 151 145 146 142 138
222 231 220 178 155 185 215 197 164 161 152 151 172 185 118 104 98 95 96 98 98 101 104 106 118 139 151 151 155 162 165 168 167 163 162 159 152 142 137 131 124 114 99 90
221 228 217 101 137 182 215 169 139 152 155 162 146 59 102 107 95 93 94 93 92 92 91 90 94 118 130 132 139 145 145 143 140 138 138 136 130 126 127 123 116 108 100 89
221 228 199 126 172 200 61 87 131 138 135 124 106 107 111 107 101 95 96 95 95 91 82 74 80 97 109 109 108 118 125 126 128 127 126 123 118 115 117 120 116 109 102 94
246 251 71 98 82 60 80 107 120 129 128 130 129 124 118 111 102 95 93 90 92 90 79 67 66 81 90 88 97 107 109 107 107 102 99 103 109 114 116 117 115 113 109 102
180 135 115 107 99 89 97 108 115 126 131 136 132 128 121 109 98 91 89 89 91 91 83 69 64 73 82 91 99 103 102 99 97 97 92 86 86 88 95 105 113 112 108 104
188 156 152 140 112 98 103 108 113 116 124 129 128 125 117 108 101 92 87 83 86 87 84 77 73 72 76 91 103 101 98 96 94 88 87 79 69 54 61 55 63 86 95 98
190 159 173 130 119 117 117 116 117 119 117 116 119 119 113 106 99 95 93 93 89 88 86 83 80 76 76 89 105 108 103 97 94 95 94 95 94 79 59 64 62 61 61 77
73 111 101 117 120 119 116 114 114 116 116 113 111 112 110 105 101 98 98 98 97 93 90 87 83 79 78 86 96 98 99 99 98 97 99 100 102 102 96 75 65 62 62 70
123 128 134 136 125 120 118 116 113 110 110 112 112 109 107 105 101 96 95 96 98 98 95 93 91 86 87 93 96 98 99 95 97 96 98 98 100 101 104 106 102 90 75 76
157 149 136 130 126 124 125 125 120 116 116 114 112 110 109 106 100 95 96 99 99 95 93 93 90 87 91 98 99 101 102 102 100 101 102 102 103 103 102 102 103 107 110 101
145 137 141 139 135 134 134 133 126 122 120 117 113 110 107 104 100 95 94 94 95 92 91 91 90 91 96 101 104 100 94 95 103 107 106 107 106 106 106 107 107 105 103 105
162 158 154 149 144 139 135 132 128 125 122 117 114 111 109 107 102 97 94 92 91 91 91 92 94 100 106 108 109 108 109 108 110 110 108 108 107 108 108 107 103 98 89 70
168 155 152 146 143 137 131 127 125 122 120 119 118 116 114 110 105 102 102 100 94 86 81 85 92 99 100 102 102 106 111 112 108 103 103 103 104 106 104 104 106 107 111 109
141 139 135 133 133 131 129 127 125 123 123 123 120 114 109 105 104 104 102 98 97 92 85 87 89 98 97 97 105 109 107 108 107 105 106 111 114 110 109 109 108 107 108 108
132 130 130 129 127 126 124 124 121 118 118 118 116 113 110 108 109 106 100 88 79 89 100 98 102 97 100 95 95 106 106 109 110 113 115 113 109 110 110 109 109 107 104 101
134 131 128 126 122 120 121 121 119 118 118 120 119 116 113 113 113 111 108 98 89 92 101 102 104 105 102 102 112 108 109 112 114 115 114 111 110 110 108 106 106 105 105 103
131 129 127 124 122 120 118 118 118 119 120 121 120 119 118 117 114 105 93 96 106 106 117 110 100 86 89 114 113 108 109 110 108 107 107 109 112 112 112 113 112 111 110 110
126 124 123 123 122 119 117 119 120 121 121 122 122 122 119 116 117 117 111 107 112 105 96 86 85 89 92 118 101 104 105 107 108 109 109 110 110 112 114 114 110 110 110 111
122 122 122 123 122 121 119 118 114 112 114 116 117 118 119 117 111 104 103 99 91 100 96 92 92 88 103 106 102 103 106 110 113 115 116 117 114 112 112 112 113 114 114 118
119 122 123 125 124 121 120 120 119 121 121 118 119 121 117 110 110 110 113 113 116 117 110 105 100 101 122 100 101 101 100 91 93 105 115 118 120 120 121 123 126 130 133 138
119 119 120 120 119 125 129 129 129 128 124 121 119 115 110 110 114 118 119 121 120 121 121 126 130 147 113 105 104 105 110 120 127 121 108 114 114 111 111 114 129 143 146 144
115 115 116 118 122 125 126 126 124 123 123 123 119 117 118 122 123 124 126 128 131 130 127 128 129 127 122 120 116 117 119 120 117 116 123 123 120 122 125 144 154 149 175 152